Flag for Gaza Strip Weather past 2 weeks in Gaza, Gaza Strip

Now
73 °F

Sunny.


Feels Like: 77 °F
Forecast: 58 / 71 °F
Wind: 13 mph from Northwest

Location: Ben Gurion International Airport

Current Time: Mar 29, 2015 at 4:02:46 PM

Latest Report: Mar 29, 2015 at 3:20 PM


Visibility: 10 mi

Pressure: 29.80 "Hg

Humidity: 47%

Dew point: 52 °F

Location of GazaLocation

Historic Weather in Gaza — Graph

°F

Gaza temperature yesterday

Maximum temperature yesterday: 84 °F (at 1:20 AM)
Minimum temperature yesterday: 66 °F (at 11:20 PM)
Average temperature yesterday: 77 °F

Past Weeks' High & Low Weather Summary

 TemperatureHumidityPressure
High90 °F (Mar 27, 1:20 PM)88% (Mar 15, 2:20 AM)30.18 "Hg (Mar 15, 2:20 AM)
Low48 °F (Mar 23, 5:50 AM)17% (Mar 27, 1:20 PM)29.62 "Hg (Mar 28, 4:50 AM)
Average63 °F59%30.01 "Hg
* Reported Mar 14 1:20 PM — Mar 29 2:50 PM, Gaza, Weather by CustomWeather, © 2015

Note: Actual official high and low records may vary slightly from our data, if they occured in-between our weather recording intervals... More about our weather records

Advertising

Gaza weather history for previous 24 hours

 ConditionsComfort  
Time TempWeatherWind HumidityBarometerVisibility
2:50 PM
Sun, Mar 29
73 °FSunny.13 mph50%29.80 "Hg10 mi
2:20 PM75 °FSunny.13 mph47%29.80 "Hg10 mi
1:50 PM75 °FSunny.15 mph47%29.80 "Hg10 mi
1:20 PM75 °FPassing clouds.12 mph47%29.80 "HgN/A
12:50 PM73 °FSunny.14 mph53%29.80 "Hg10 mi
12:20 PM77 °FSunny.10 mph42%29.80 "Hg10 mi
11:50 AM75 °FSunny.9 mph44%29.80 "Hg10 mi
11:20 AM77 °FClear.6 mph44%29.80 "Hg6 mi
10:50 AM77 °FClear.1 mph47%29.80 "Hg6 mi
10:20 AM75 °FClear.2 mph50%29.80 "Hg6 mi
9:50 AM73 °FClear.2 mph53%29.80 "Hg6 mi
9:20 AM70 °FSunny.2 mph60%29.80 "Hg10 mi
8:50 AM70 °FSunny.1 mph60%29.80 "Hg10 mi
8:20 AM66 °FSunny.1 mph68%29.77 "Hg10 mi
7:50 AM64 °FClear.1 mph68%29.77 "Hg6 mi
7:20 AM63 °FClear.1 mph73%29.77 "Hg10 mi
6:50 AM63 °FClear.2 mph73%29.77 "Hg10 mi
6:20 AM63 °FClear.2 mph73%29.77 "Hg10 mi
5:50 AM63 °FPassing clouds.3 mph77%29.77 "HgN/A
5:20 AM63 °FPassing clouds.3 mph77%29.77 "HgN/A
4:50 AM63 °FPassing clouds.3 mph77%29.77 "HgN/A
4:20 AM63 °FPassing clouds.3 mph77%29.80 "HgN/A
3:50 AM64 °FClear.1 mph73%29.80 "Hg10 mi
3:20 AM64 °FClear.5 mph73%29.80 "Hg10 mi
2:50 AM66 °FClear.3 mph68%29.80 "Hg10 mi
2:20 AM66 °FClear.5 mph68%29.80 "Hg10 mi
1:50 AM66 °FClear.5 mph68%29.80 "Hg10 mi
1:20 AM66 °FClear.1 mph68%29.83 "Hg10 mi
12:50 AM66 °FClear.5 mph68%29.83 "Hg10 mi
12:20 AM66 °FClear.3 mph73%29.83 "Hg10 mi
11:50 PM
Sat, Mar 28
66 °FClear.5 mph73%29.86 "Hg10 mi
11:20 PM66 °FClear.2 mph73%29.83 "Hg10 mi
10:50 PM68 °FPassing clouds.5 mph64%29.86 "HgN/A
10:20 PM68 °FLight rain. Passing clouds.3 mph69%29.83 "HgN/A
9:50 PM72 °FLight rain. Passing clouds.7 mph57%29.83 "HgN/A
9:20 PM72 °FPassing clouds.13 mph57%29.83 "HgN/A
8:50 PM72 °FLight rain. Passing clouds.7 mph57%29.83 "HgN/A
8:20 PM73 °FClear.6 mph44%29.86 "Hg10 mi
7:50 PM73 °FPassing clouds.6 mph50%29.83 "HgN/A
7:20 PM75 °FLight rain. Passing clouds.6 mph39%29.86 "HgN/A
6:50 PM75 °FLight rain. Passing clouds.8 mph36%29.83 "HgN/A
6:20 PM77 °FLight rain. Scattered clouds.8 mph36%29.86 "HgN/A
5:50 PM77 °FSunny.5 mph30%29.83 "Hg10 mi
5:20 PM79 °FSunny.6 mph30%29.86 "Hg10 mi
4:50 PM79 °FSunny.6 mph28%29.83 "Hg10 mi
4:20 PM81 °FSunny.9 mph26%29.83 "Hg10 mi
Weather by CustomWeather, © 2015

See weather overviewHow to use our weather pages